Location: *
(40.7873°S, 98.7174°E)
Time: 01:14:26
(UTC+00:00)

ARIANE 6 FM1 Upper Stage - Pass Details

Date: 22 December 2025
Orbit: 522 x 610 km, 62.0° (Epoch: 20 January)

Event Time Altitude Azimuth Distance (km) Brightness Sun altitude
Rises 15:33:02 0° 204° (SSW) 2,913 7.9 -20.8°
Reaches altitude 10° 15:37:27 10° 164° (SSE) 1,996 6.1 -21.2°
Maximum altitude 15:38:23 11° 152° (SSE) 1,955 5.9 -21.3°
Drops below altitude 10° 15:39:20 10° 140° (SE) 1,988 5.7 -21.3°
Enters shadow 15:42:55 - 104° (ESE) 2,655 6.0 -21.6°
